This is the latest recevied weather packets stored in our database for station/object W5ALL-WX. If no packets are shown the sender has not sent any weather packets the latest 10 day(s).
| Time | Temp. | Humidity | Pressure | Rain* | Wind** | Luminosity | Snow |
|---|---|---|---|---|---|---|---|
| 1777861288 | 20° C | 44% | 1014.5 hPa | 0 mm | - | - | - |
| 1777860988 | 20.56° C | 43% | 1014.5 hPa | 0 mm | - | - | - |
| 1777860688 | 20.56° C | 43% | 1014.5 hPa | 0 mm | - | - | - |
| 1777860388 | 20.56° C | 42% | 1014.3 hPa | 0 mm | - | - | - |
| 1777860088 | 20.56° C | 41% | 1014.3 hPa | 0 mm | - | - | - |
| 1777859788 | 20.56° C | 41% | 1014.5 hPa | 0 mm | - | - | - |
| 1777859488 | 21.11° C | 40% | 1014.5 hPa | 0 mm | - | - | - |
| 1777859188 | 21.11° C | 40% | 1014.5 hPa | 0 mm | - | - | - |
| 1777858888 | 21.67° C | 39% | 1014.3 hPa | 0 mm | - | - | - |
| 1777858588 | 21.67° C | 39% | 1014.3 hPa | 0 mm | - | - | - |
| 1777858288 | 21.67° C | 38% | 1014.3 hPa | 0 mm | - | - | - |
| 1777857988 | 22.22° C | 38% | 1014.3 hPa | 0 mm | - | - | - |
| 1777857688 | 22.22° C | 37% | 1014.3 hPa | 0 mm | - | - | - |
| 1777857388 | 21.67° C | 38% | 1014.3 hPa | 0 mm | - | - | - |
| 1777857088 | 21.67° C | 38% | 1014.3 hPa | 0 mm | - | - | - |
| 1777856788 | 22.22° C | 37% | 1014.3 hPa | 0 mm | - | - | - |
| 1777856488 | 21.67° C | 38% | 1014.5 hPa | 0 mm | - | - | - |
| 1777856188 | 22.22° C | 38% | 1014.5 hPa | 0 mm | - | - | - |
| 1777855888 | 21.67° C | 38% | 1014.6 hPa | 0 mm | - | - | - |
| 1777855588 | 21.67° C | 38% | 1014.7 hPa | 0 mm | - | - | - |
| 1777855288 | 21.67° C | 37% | 1014.7 hPa | 0 mm | - | - | - |
| 1777854988 | 22.22° C | 37% | 1014.8 hPa | 0 mm | - | - | - |
| 1777854688 | 22.22° C | 37% | 1014.7 hPa | 0 mm | - | - | - |
| 1777854388 | 22.22° C | 37% | 1014.8 hPa | 0 mm | - | - | - |
| 1777854088 | 21.67° C | 37% | 1014.9 hPa | 0 mm | - | - | - |
* Rain latest hour (hover to see other rain measurements)
** Current wind speed in m/s (hover to see current wind gust speed)